Regional Weather Roundup
Issued by NWS Jackson, KY

Home | Current Version | Previous Version | Text Only | Print | Product List | Glossary Off
Versions: 1 2 3 4 5 6 7 8 9 10 11 12 13 14 15 16 17 18 19 20 21 22 23 24 25 26 27 28 29 30 31 32 33 34 35 36 37 38 39 40 41 42 43 44 45 46 47 48 49 50

000
ASUS43 KJKL 162010
RWRJKL

EAST KENTUCKY HOURLY WEATHER ROUNDUP
NATIONAL WEATHER SERVICE JACKSON KY
300 PM EST SAT DEC 16 2017

NOTE: "FAIR" INDICATES FEW OR NO CLOUDS BELOW 12,000 FEET WITH
NO SIGNIFICANT WEATHER AND/OR OBSTRUCTIONS TO VISIBILITY.

* THESE REPORTS ARE NOT UNDER NWS QUALITY CONTROL AND MAY NOT
  REPORT WEATHER SUCH AS PRECIPITATION AND FOG.

KYZ079-080-083-085-087-088-110-112-115-119-120-162100
...EASTERN KENTUCKY...

CITY           SKY/WX    TMP DP  RH WIND       PRES   REMARKS
JACKSON        SUNNY     50  27  40 VRB5      30.13F
LONDON         SUNNY     48  27  44 S8G20     30.15F
SOMERSET*      SUNNY     48  28  46 W10G17    30.17F
MONTICELLO*    SUNNY     50  30  46 SW16G22   30.18F
WILLIAMSBURG*  CLEAR     50  28  43 SW9       30.16F
MIDDLESBORO*   SUNNY     47  28  47 S10       30.18F
HARLAN APT*    CLEAR     46  27  46 SW7       30.16F
PIKE CO APT*     N/A     49  27  42 SW7       30.12F
BIG SANDY APT* CLEAR     50  28  41 SW6       30.13S
MOREHEAD APT*  CLEAR     50  27  40 SW13G23   30.12S
$$

KYZ035-036-041-042-044-050-067-078-099-162100
...CENTRAL KENTUCKY...

CITY           SKY/WX    TMP DP  RH WIND       PRES   REMARKS
MT STERLING*   SUNNY     50  30  46 W15G22    30.12F
FLEMING/MASON* SUNNY     49  29  45 SW15G23   30.09F
DANVILLE*      SUNNY     48  30  49 SW16      30.13F
LEXINGTON      SUNNY     50  29  44 SW21G28   30.10F
FRANKFORT      SUNNY     51  27  39 SW13G23   30.08F
LOUISVILLE     MOSUNNY   53  27  36 SW14G28   30.08F
LEBANON*         N/A     50  28  43 S14       30.12F
GLASGOW*       SUNNY     51  30  44 S12       30.15F
BOWLING GREEN  SUNNY     52  30  43 SW16G25   30.15F
$$

KYZ091>093-OHZ055-061-077-WVZ005-015-034-035-042-162100
...SOUTHERN OHIO/WEST VIRGINIA...

CITY           SKY/WX    TMP DP  RH WIND       PRES   REMARKS
COVINGTON      SUNNY     49  28  44 SW15      30.04F
COLUMBUS       SUNNY     47  27  45 SW21G26   30.01F
DAYTON         SUNNY     48  29  47 SW20G25   30.00S
WILMINGTON     SUNNY     48  29  47 SW17      30.02S
HUNTINGTON     SUNNY     51  25  36 SW13      30.09F
CHARLESTON     SUNNY     50  25  37 SW12      30.10F
PINEVILLE*     SUNNY     47  25  43 MISG      30.17S
BECKLEY        SUNNY     42  23  46 W13       30.10S
BLUEFIELD      SUNNY     40  21  46 W14       30.11S WCI  32
LOGAN CO APT*    N/A     48  25  40 SW8       30.10F
$$

VAZ002-007-008-TNZ017-027-036-066-071-162100
...SOUTHWEST VIRGINIA/EAST TENNESSEE...

CITY           SKY/WX    TMP DP  RH WIND       PRES   REMARKS
WISE*          SUNNY     43  28  56 SW13      30.14F
JONESVILLE*      N/A     46  27  46 SW8       30.21S
ABINGDON*      SUNNY     44  26  50 W10       30.17S
BRISTOL        MOSUNNY   45  27  49 W12       30.19F
MORRISTOWN*    CLEAR     46  27  46 SW8       30.19F
SEVIERVILLE*   CLEAR     48  28  46 NW7       30.20S
KNOXVILLE      PTSUNNY   46  30  53 SW12      30.21F
LAFOLLETTE*    CLEAR     46  27  46 S5        30.22F
OAK RIDGE      SUNNY     48  29  47 VRB7      30.22F
CROSSVILLE     SUNNY     48  26  42 VRB7      30.18F
NASHVILLE      PTSUNNY   52  28  39 S10       30.18F
$$

...KEY TO REMARKS...
VSB - VISIBILITY IN MILES
WCI - WIND CHILL INDEX
HX  - HEAT INDEX

$$



USA.gov is the U.S. government's official web portal to all federal, state and local government web resources and services.